sat.trackr.live / text

‹ back to catalog

STARLINK-35160

NORAD 65911 · 2025-225B

PAYLOAD ACTIVE UNKNOWN

§ Identity

Operator
Country
US
Launch date
2025-10-08
Launch site
AFWTR
Launch vehicle
Mass (kg)
RCS (m²)

Purposes: comms

External: N2YO · Heavens-Above · Gunter

§ Orbital elements

Epoch: 2026-09-20T21:51:45.509760Z

Period
93.85 min
Inclination
53.1580°
Eccentricity
0.0001332
Mean motion
15.34394950 rev/d
Perigee alt
461.8 km
Apogee alt
463.6 km
Semi-major
6,840.9 km
B*
2.9849e-4
RAAN
335.6173°
Arg perigee
77.2272°
Mean anomaly
282.8879°
Rev number
5,434

§ Raw data

STARLINK-351601 65911U 25225B   26263.91094340  .00009720  00000+0  29849-3 0  99992 65911  53.1580 335.6173 0001332  77.2272 282.8879 15.34394950 54343

JSON: /api/v1/satellites/65911 · /tle

For live sub-satellite position, see the globe view (requires WebGL).

§ Visibility from observer

Set your observer location to see the next 7 days of passes ≥ 10°. The values pass through the URL so the page stays shareable.

No JS? Fill the form by hand. The geolocation button needs JavaScript.